Regional Weather Roundup
Issued by NWS

Home | Current Version | Previous Version | Graphics & Text | Print | Product List | Glossary On
Versions: 1 2 3 4 5 6 7 8 9 10 11 12 13 14 15 16 17 18 19 20 21 22 23 24 25 26 27 28 29 30 31 32 33 34 35 36 37 38 39 40 41 42 43 44 45 46 47 48 49 50
000
ASUS43 KIND 282309
RWRIN

WEATHER ROUNDUP FOR INDIANA
NATIONAL WEATHER SERVICE INDIANAPOLIS IN
700 PM EDT WED SEP 28 2016

NOTE: "FAIR" INDICATES FEW OR NO CLOUDS BELOW 12,000 FEET WITH NO
SIGNIFICANT WEATHER AND/OR OBSTRUCTIONS TO VISIBILITY.

* - STATION DOES NOT REPORT WEATHER SUCH AS PRECIPITATION OR FOG.

+ - STATION NOT QUALITY CONTROLLED BY THE NATIONAL WEATHER SERVICE.
    USE DATA WITH CAUTION...ESPECIALLY DEWPOINT AND RELATIVE
    HUMIDITY OBSERVATIONS.

INZ001>003-010>013-019-020-290000-
NORTHWEST INDIANA

CITY           SKY/WX    TMP DP  RH WIND       PRES   REMARKS
GARY /AIRPORT/ MOCLDY    63  54  72 N8        30.00R
KNOX *+        CLOUDY    57  30  35 N9        29.96R
LA PORTE +     LGT RAIN  61  54  77 NE8       29.99R
MICHIGAN CITY+ CLOUDY    59  52  77 CALM      29.99R
MONTICELLO +   CLOUDY    58  48  71 NW5       29.95R
RENSSELAER +   CLOUDY    57  54  88 NW8       29.98R
VALPARAISO     MOCLDY    60  49  66 N5        29.98R

$$

LMZ046-743>745-290000-
SOUTHERN LAKE MICHIGAN

STATION/POSITION TIME  TEMP    WIND        PRES    WAVE
                       AIR SEA DIR/SP/G            HT
                 (UTC) (F)     (DEG/KT/KT) (MB)    (FT)
BURNS HARBOR     2240   62      50/ 14/ 16 1015.6R
MICHIGAN CITY    2240   60      20/  7/  8   N/A
5NW MICH CITY    2300   63 66   50/ 16/ 21   N/A     4

$$

INZ004-005-014>016-021>024-290000-
NORTH CENTRAL INDIANA

CITY           SKY/WX    TMP DP  RH WIND       PRES   REMARKS
ELKHART        MOCLDY   N/A N/A N/A N6        29.97R
GOSHEN         CLOUDY    55  50  83 N8        29.95R
LOGANSPORT +   LGT RAIN  54  52  94 NW5       29.96R
PERU/GRISSOM   CLOUDY    58  49  72 NW8       29.93R
ROCHESTER +    LGT RAIN  59  55  88 N3        29.95R
SOUTH BEND     PTCLDY    55  51  86 N6        29.98R
WARSAW +       RAIN      54  50  87 N3        29.95S

$$

INZ006>009-017-018-025>027-290000-
NORTHEAST INDIANA

CITY           SKY/WX    TMP DP  RH WIND       PRES   REMARKS
ANGOLA *+        N/A     55  43  62 NE7       29.95R
AUBURN +       DRIZZLE   57  50  77 N7        29.93S
FORT WAYNE     RAIN      55  52  89 N5        29.93S FOG
HUNTINGTON +   DRIZZLE   57  56  95 NW7       29.93R
KENDALLVILLE + CLOUDY    57  50  78 NE9       29.94R

$$

INZ028-029-035-036-043>045-051>053-290000-
WEST CENTRAL INDIANA

CITY           SKY/WX    TMP DP  RH WIND       PRES   REMARKS
CRAWFORDSVL +  CLOUDY    55  48  78 NW8       29.96R
GREENCASTLE +  CLOUDY    57  50  77 NW7       29.97R
LAFAYETTE      NOT AVBL
TERRE HAUTE    CLOUDY    61  45  55 N10       29.97R

$$

INZ030>032-037>040-046>048-054>057-064-065-290000-
CENTRAL INDIANA

CITY           SKY/WX    TMP DP  RH WIND       PRES   REMARKS
COLUMBUS       PTCLDY    57  55  94 NW5       29.93R
FISHERS *+     CLOUDY    55  55 100 CALM      29.94
FRANKFORT +    CLOUDY    59  51  75 N10       29.97R
GREENWOOD *+   CLOUDY    59  57  94 CALM      29.94R
INDIANAPOLIS   CLOUDY    59  50  72 NW9       29.94R
-EAGLE CREEK   CLOUDY    60  51  72 NW9       29.93R
KOKOMO *+      CLOUDY    58  50  75 NW9       29.95R
MARION +       CLOUDY    58  51  78 N8        29.94R
MT COMFORT *+  CLOUDY    57  54  88 CALM      29.93R
SHELBYVILLE    MOCLDY    59  53  80 N5        29.92R
ZIONSVILLE +   CLOUDY    57  48  73 NW10      29.94R

$$

INZ033-034-041-042-049-050-058-059-290000-
EAST CENTRAL INDIANA

CITY           SKY/WX    TMP DP  RH WIND       PRES   REMARKS
MUNCIE         CLOUDY    57  53  86 N6        29.92R

$$

INZ060-061-067>069-081>083-085>088-290000-
SOUTHWEST INDIANA

CITY           SKY/WX    TMP DP  RH WIND       PRES   REMARKS
EVANSVILLE     PTCLDY    62  44  51 NW10      29.99R
HUNTINGBURG *+   N/A     63  46  55 NW12      29.96R
WASHINGTON +   CLOUDY    62  47  58 MISG      29.96R

$$

INZ062-063-066-070>080-084-089>092-290000-
SOUTH CENTRAL AND SOUTHEAST INDIANA

CITY           SKY/WX    TMP DP  RH WIND       PRES   REMARKS
BLOOMINGTON    CLOUDY    59  48  67 NW6       29.95R
MADISON *+     PTCLDY    55  52  88 CALM      29.94R
NORTH VERNON + CLOUDY   N/A N/A N/A NW6       29.93R
SEYMOUR +      MOCLDY    61  50  67 NW7       29.93R

$$





USA.gov is the U.S. government's official web portal to all federal, state and local government web resources and services.